Voltar ao catálogo

TITAN 3C TRANSTAGE DEB

AtivoHEO
NORAD 26525·DEBRIS·🇺🇸 United States

Lançado Dec 21, 1965 de Cape Canaveral Space Force Station

Loading…

Próximas Passagens (próximas 24 horas)

TLE

AtualizadoSource: Space-Track

Época: Sep 11, 2026, 22:11 UTC

1 26525U 65108AL  26254.92498073  .00000833  00000-0  59873-2 0  9999
2 26525  26.1557 121.8864 6716977  93.9295 348.3009  2.83390773273188

Acompanhe TITAN 3C TRANSTAGE DEB em tempo real com AllMySat

Download on the App Store